Погода в Чернигове

Хотите узнать прогноз погоды в Чернигове? Тогда Вам сюда: Погода в Чернигове

Поиск расширенной информации на нашем сайте:

Полезная информация:

Новости сайта



14.11.2019
Обновлён Долгосрочный прогноз погоды по России и другим странам хСССР на ноябрь-декабрь 2019 года.
Опубликованы прогностические карты: Предварительный прогноз на декабрь 2019 года, Предварительный прогноз на январь 2020 года, Предварительная схема синоптических процессов на декабрь 2019 г..

11.11.2019
Обновлены Долгосрочный прогноз погоды по России и другим странам хСССР на ноябрь-декабрь 2019 года и Предварительный прогноз на зиму 2019/2020 годов

04.11.2019
Опубликован Долгосрочный прогноз погоды по России и другим странам хСССР на ноябрь 2019 года
Сравнение прогнозируемой аномалии приземной температуры воздуха на ноябрь 2019 года по разным моделям
Предварительный прогноз на зиму 2019/2020 года




Погода в Чернигове - сегодня

Время (UTC), дата Ветер
(°,м/с) 
Видим.   Явления Облачность Т
(°С)
Тd
(°С)
f(%) Тe
(°С)
Pmin
(гПа)
dP
(гПа)
Po
(мм)
O2
(г/м3)
Тmin Tmax R s Состояние
почвы
00 18.11.19 120 (ЮВ) н/о  дымка  10/10 210 м 
[St]
+5.7 +5.2 97 +5  1028.3  -0.3  760  299           
03 18.11.19 120 (ЮВ) н/о  дымка  10/10 210 м 
[St]
+1.8 +1.5 98 1028.3  -0.2  760  304           
06 18.11.19 120 (ЮВ) 0500 м  туман  10/10 180 м 
[St]
+0.5 +0.5 100 1027.9  -0.4  760  305  +0.2         
09 18.11.19 130 (ЮВ) 2000 м  дымка{морось, туман}  10/10 180 м 
[St]
+0.7 +0.4 98 -1  1027.9  760  305           
12 18.11.19 130 (ЮВ) 4000 м  дымка{морось, туман}  10/10 180 м 
[St]
+1.3 +1 98 1027.3  -0.6  759  304           
15 18.11.19 150 (ЮВ) н/о  слаб. морось  10/10 180 м 
[St]
+2.5 +2.2 98 +2  1026.8  -0.4  759  303           
18 18.11.19 150 (ЮВ) н/о  дымка{морось}  10/10 200 м 
[St]
+2.8 +2.3 97 +1  1027.1  0.3  759  302    +3.1  0.0     
21 18.11.19 160 (Ю) н/о  дымка  10/10 240 м 
[St]
+3.1 +2.3 94 +2  1027.8  0.7  760  302           
00 19.11.19 150 (ЮВ) н/о  дымка  10/10 300 м 
[St]
+3.3 +2.5 94 +3  1027.9  0.1  760  302           
03 19.11.19 150 (ЮВ) н/о  слаб. морось  10/10 240 м 
[St]
+3.6 +2.6 93 +4  1028  0.1  760  302           
06 19.11.19 120 (ЮВ) 2000 м  слаб. морось  10/10 200 м 
[St]
+4.3 +4.1 99 +5  1028.4  0.5  760  301  +2.8    0.1     
09 19.11.19 150 (ЮВ) 1000 м  слаб. морось{туман}  10/10 180 м 
[St]
+5.1 +4.9 99 +6  1029.1  0.7  761  300           
12 19.11.19 130 (ЮВ) 2000 м  дымка{морось, туман}  10/10 210 м 
[St]
+5.5 +5.3 99 +6  1028.5  -0.6  760  299           
15 19.11.19 130 (ЮВ) н/о  дымка  10/10 180 м 
[St]
+5.5 +5.3 99 +6  1028.9  0.4  760  300           
18 19.11.19 тихо ()   н/о  туман  ?/?  
+5.4 +5.4 100 +5  1029.3  0.4  761  300    +6.1  0.0     
21 19.11.19 100 (В) н/о  туман  ?/?  
+4.9 +4.9 100 +6  1030  0.7  761  301           
00 20.11.19 090 (В) н/о  туман  ?/?  
+4.1 +4.1 100 +5  1030.4  0.3  761  302           
03 20.11.19 090 (В) н/о  туман  ?/?  
+3.3 +3.3 100 +4  1030.8  0.4  762  303           
06 20.11.19 090 (В) 2000 м  в посл. час туман  10/10 210 м 
[St]
+2.2 +1.9 98 +2  1031.8  0.9  762  304  +2         
09 20.11.19 090 (В) 2000 м  слаб. морось  10/10 210 м 
[St]
+2.1 +1.8 98 +1  1032.5  0.7  763  305           
12 20.11.19 090 (В) 4000 м  дымка{морось}  10/10 240 м 
[St]
+2.2 +1.4 94 +1  1033  0.5  763  305           
15 20.11.19 090 (В) н/о  слаб. морось  10/10 210 м 
[St]
+1.4 +0.9 96 +1  1034.1  764  306           
18 20.11.19 080 (В) н/о  слаб. морось  10/10 300 м 
[St]
+1.1 +0.6 96 1034.8  0.7  765  307    +2.5  0.7     
21 20.11.19 100 (В) н/о  дымка{морось}  10/10 330 м 
[St]
+0.9 +0.1 94 -1  1035.7  0.9  765  307           
00 21.11.19 100 (В) н/о  дымка{морось}  10/10 660 м 
[Sc]
+1 -0.1 92 -2  1036.7  0.9  766  308      0.0     
Время (UTC), дата Ветер
(°,м/с) 
Видим.   Явления Облачность Т
(°С)
Тd
(°С)
f(%) Тe
(°С)
Pmin
(гПа)
dP
(гПа)
Po
(мм)
O2
(г/м3)
Тmin Tmax R s Состояние
почвы

Для получения пояснительной информации подведите курсор к названию столбца.

ПОГОДА в Чернигове - архив

Всё, что Вы хотите узнать о погоде в Чернигове - удобно и подробно!

Выберите нужную дату (начиная с 1 января 2019* года) и нажмите кнопку "Найти".
Будут отображены архивные сводки погоды по пункту Чернигов, начиная с указанной даты.


Отображать данные в формате CSV (для использования в таблицах Excel)


Внимание! Наш архив погоды предназначен исключительно для личного некоммерческого использования в познавательных целях. Если Вам необходимы официальные справки о состоянии погоды (для производственных, юридических, коммерческих и т.п. целей), обращайтесь в органы Росгидромета.

*Примечание: данная дата относится к архиву по метеостанциям СССР (Россия, СНГ, Балтия).
Архив по метеостанциям Зарубежной Европы и Азии (кроме Китая) хранится 10 дней, по другим регионам земного шара (Китай, Африка, Америка, Австралия, Океания) - 1 день.

Чернигов - район местоположения метеостанции


Название, широта, долгота, высота метеостанции:
Чернигов 51.5°ш. 31.2°д. 141 м над ур. моря [Украина]

Дополнительная информация

В oтличие oт бoльшинства пoгoдных сайтoв мы публикуем пoдрoбную метеoинфoрмацию в детальнoм прoфессиoнальнoм фoрмате.

Характеристики температуры и влажнoсти вoздуха измеряются на высoте 2 м в тени вдали oт зданий и деревьев.
Скoрoсть ветра измеряется на высoте 10 м (на урoвне рoста челoвека скoрoсть ветра ниже в 1.5-2 раза). Если метеoстанция нахoдится в гoрoде или в лесу, тo скoрoсть ветра занижена на 2-4 м/с пo сравнению с oткрытым местoм. Скoрoсть ветра над акватoриями крупных рек и oзёр, а также на вершинах хoлмoв на 2-5 м/с выше, чем в oбычных услoвиях.
Атмoсфернoе давление в разных тoчках местнoсти мoжет значительнo oтличаться oт давления на метеoстанции, в зависимoсти oт услoвий рельефа (при пoдъёме на 10 м давление пoнижается примернo на 1 мм рт.ст.).